contact:dominique.lefevre@mio.osupytheas.fr, maurice.libes@osupytheas.fr, didier.mallarino@osupytheas.fr
Project:EMSO http://www.emso-fr.org/EMSO-France
Depth: 2436.0 m
Title:EMSO Ligure Ouest : Data MII capteur MICROCAT
DateTime_Computer,Latitude,Longitude,Temperature,Conductivity,Pressure,DateTime_Instrument
DateTime_Computer,Latitude,Longitude,degC,S m-1,dbar,DateTime_Instrument
2023-06-29T00:02:20Z,42.805,6.029,13.3024,4.60082,2470.74,2023-6-29T02:04:35Z
2023-06-29T00:05:23Z,42.805,6.029,13.3024,4.60083,2470.726,2023-6-29T02:07:38Z
2023-06-29T00:08:26Z,42.805,6.029,13.3021,4.60081,2470.726,2023-6-29T02:10:41Z
2023-06-29T00:11:29Z,42.805,6.029,13.3023,4.60081,2470.717,2023-6-29T02:13:44Z
2023-06-29T00:14:32Z,42.805,6.029,13.3019,4.60081,2470.74,2023-6-29T02:16:47Z
2023-06-29T00:17:35Z,42.805,6.029,13.3023,4.60084,2470.754,2023-6-29T02:19:50Z
2023-06-29T00:20:38Z,42.805,6.029,13.3020,4.60084,2470.763,2023-6-29T02:22:53Z
2023-06-29T00:23:41Z,42.805,6.029,13.3021,4.60082,2470.74,2023-6-29T02:25:57Z
2023-06-29T00:26:44Z,42.805,6.029,13.3022,4.60082,2470.717,2023-6-29T02:29:00Z
2023-06-29T00:29:47Z,42.805,6.029,13.3019,4.60086,2470.763,2023-6-29T02:32:03Z
2023-06-29T00:32:50Z,42.805,6.029,13.3019,4.60087,2470.75,2023-6-29T02:35:06Z
2023-06-29T00:35:54Z,42.805,6.029,13.3024,4.60084,2470.787,2023-6-29T02:38:09Z
2023-06-29T00:38:57Z,42.805,6.029,13.3021,4.60081,2470.717,2023-6-29T02:41:12Z
2023-06-29T00:42:00Z,42.805,6.029,13.3021,4.60080,2470.763,2023-6-29T02:44:15Z
2023-06-29T00:45:03Z,42.805,6.029,13.3021,4.60084,2470.763,2023-6-29T02:47:18Z
2023-06-29T00:48:06Z,42.805,6.029,13.3019,4.60081,2470.74,2023-6-29T02:50:21Z
2023-06-29T00:51:09Z,42.805,6.029,13.3020,4.60082,2470.74,2023-6-29T02:53:24Z
2023-06-29T00:54:12Z,42.805,6.029,13.3021,4.60084,2470.74,2023-6-29T02:56:27Z
2023-06-29T00:57:15Z,42.805,6.029,13.3021,4.60086,2470.777,2023-6-29T02:59:30Z
2023-06-29T01:00:18Z,42.805,6.029,13.3024,4.60080,2470.787,2023-6-29T03:02:34Z
2023-06-29T01:03:21Z,42.805,6.029,13.3022,4.60081,2470.763,2023-6-29T03:05:37Z
2023-06-29T01:06:24Z,42.805,6.029,13.3021,4.60084,2470.787,2023-6-29T03:08:40Z
2023-06-29T01:09:28Z,42.805,6.029,13.3024,4.60084,2470.777,2023-6-29T03:11:43Z
2023-06-29T01:12:31Z,42.805,6.029,13.3021,4.60081,2470.787,2023-6-29T03:14:46Z
2023-06-29T01:15:34Z,42.805,6.029,13.3022,4.60081,2470.777,2023-6-29T03:17:49Z
2023-06-29T01:18:37Z,42.805,6.029,13.3021,4.60081,2470.763,2023-6-29T03:20:52Z
2023-06-29T01:21:40Z,42.805,6.029,13.3023,4.60079,2470.763,2023-6-29T03:23:55Z
2023-06-29T01:24:43Z,42.805,6.029,13.3022,4.60079,2470.763,2023-6-29T03:26:58Z
2023-06-29T01:27:46Z,42.805,6.029,13.3022,4.60080,2470.787,2023-6-29T03:30:01Z
2023-06-29T01:30:49Z,42.805,6.029,13.3026,4.60084,2470.763,2023-6-29T03:33:04Z
2023-06-29T01:33:52Z,42.805,6.029,13.3024,4.60080,2470.763,2023-6-29T03:36:07Z
2023-06-29T01:36:55Z,42.805,6.029,13.3021,4.60081,2470.763,2023-6-29T03:39:11Z
2023-06-29T01:39:58Z,42.805,6.029,13.3019,4.60080,2470.81,2023-6-29T03:42:14Z
2023-06-29T01:43:01Z,42.805,6.029,13.3019,4.60081,2470.787,2023-6-29T03:45:17Z
2023-06-29T01:46:04Z,42.805,6.029,13.3019,4.60081,2470.787,2023-6-29T03:48:20Z
2023-06-29T01:49:08Z,42.805,6.029,13.3024,4.60085,2470.763,2023-6-29T03:51:23Z
2023-06-29T01:52:11Z,42.805,6.029,13.3019,4.60080,2470.763,2023-6-29T03:54:26Z
2023-06-29T01:55:14Z,42.805,6.029,13.3022,4.60081,2470.81,2023-6-29T03:57:29Z
2023-06-29T01:58:17Z,42.805,6.029,13.3021,4.60081,2470.81,2023-6-29T04:00:32Z
2023-06-29T02:01:20Z,42.805,6.029,13.3024,4.60080,2470.81,2023-6-29T04:03:35Z
2023-06-29T02:04:23Z,42.805,6.029,13.3019,4.60081,2470.8,2023-6-29T04:06:38Z
2023-06-29T02:07:26Z,42.805,6.029,13.3022,4.60080,2470.787,2023-6-29T04:09:41Z
2023-06-29T02:10:29Z,42.805,6.029,13.3025,4.60081,2470.787,2023-6-29T04:12:44Z
2023-06-29T02:13:32Z,42.805,6.029,13.3022,4.60080,2470.787,2023-6-29T04:15:48Z
2023-06-29T02:16:35Z,42.805,6.029,13.3022,4.60080,2470.763,2023-6-29T04:18:51Z
2023-06-29T02:19:38Z,42.805,6.029,13.3018,4.60079,2470.74,2023-6-29T04:21:54Z
2023-06-29T02:22:42Z,42.805,6.029,13.3024,4.60082,2470.8,2023-6-29T04:24:57Z
2023-06-29T02:25:45Z,42.805,6.029,13.3022,4.60079,2470.847,2023-6-29T04:28:00Z
2023-06-29T02:28:48Z,42.805,6.029,13.3022,4.60080,2470.833,2023-6-29T04:31:03Z
2023-06-29T02:31:51Z,42.805,6.029,13.3020,4.60079,2470.787,2023-6-29T04:34:06Z
2023-06-29T02:34:54Z,42.805,6.029,13.3024,4.60080,2470.777,2023-6-29T04:37:09Z
2023-06-29T02:37:57Z,42.805,6.029,13.3017,4.60080,2470.8,2023-6-29T04:40:12Z
2023-06-29T02:41:00Z,42.805,6.029,13.3018,4.60081,2470.763,2023-6-29T04:43:15Z
2023-06-29T02:44:03Z,42.805,6.029,13.3022,4.60079,2470.81,2023-6-29T04:46:18Z
2023-06-29T02:47:06Z,42.805,6.029,13.3024,4.60081,2470.787,2023-6-29T04:49:21Z
2023-06-29T02:50:09Z,42.805,6.029,13.3024,4.60082,2470.777,2023-6-29T04:52:25Z
2023-06-29T02:53:12Z,42.805,6.029,13.3022,4.60084,2470.763,2023-6-29T04:55:28Z
2023-06-29T02:56:15Z,42.805,6.029,13.3024,4.60081,2470.796,2023-6-29T04:58:31Z
2023-06-29T02:59:18Z,42.805,6.029,13.3020,4.60080,2470.763,2023-6-29T05:01:34Z
2023-06-29T03:02:22Z,42.805,6.029,13.3021,4.60081,2470.8,2023-6-29T05:04:37Z
2023-06-29T03:05:25Z,42.805,6.029,13.3025,4.60081,2470.777,2023-6-29T05:07:40Z
2023-06-29T03:08:28Z,42.805,6.029,13.3018,4.60081,2470.8,2023-6-29T05:10:43Z
2023-06-29T03:11:31Z,42.805,6.029,13.3020,4.60080,2470.8,2023-6-29T05:13:46Z
2023-06-29T03:14:34Z,42.805,6.029,13.3020,4.60081,2470.81,2023-6-29T05:16:49Z
2023-06-29T03:17:37Z,42.805,6.029,13.3021,4.60080,2470.787,2023-6-29T05:19:52Z
2023-06-29T03:20:40Z,42.805,6.029,13.3022,4.60080,2470.787,2023-6-29T05:22:55Z
2023-06-29T03:23:43Z,42.805,6.029,13.3020,4.60079,2470.81,2023-6-29T05:25:58Z
2023-06-29T03:26:46Z,42.805,6.029,13.3025,4.60079,2470.787,2023-6-29T05:29:02Z
2023-06-29T03:29:49Z,42.805,6.029,13.3021,4.60080,2470.81,2023-6-29T05:32:05Z
2023-06-29T03:32:52Z,42.805,6.029,13.3020,4.60081,2470.81,2023-6-29T05:35:08Z
2023-06-29T03:35:56Z,42.805,6.029,13.3025,4.60080,2470.824,2023-6-29T05:38:11Z
2023-06-29T03:38:59Z,42.805,6.029,13.3022,4.60081,2470.787,2023-6-29T05:41:14Z
2023-06-29T03:42:02Z,42.805,6.029,13.3021,4.60083,2470.787,2023-6-29T05:44:17Z
2023-06-29T03:45:05Z,42.805,6.029,13.3021,4.60081,2470.787,2023-6-29T05:47:20Z
2023-06-29T03:48:08Z,42.805,6.029,13.3021,4.60082,2470.81,2023-6-29T05:50:23Z
2023-06-29T03:51:11Z,42.805,6.029,13.3024,4.60080,2470.81,2023-6-29T05:53:26Z
2023-06-29T03:54:14Z,42.805,6.029,13.3024,4.60080,2470.787,2023-6-29T05:56:29Z
2023-06-29T03:57:17Z,42.805,6.029,13.3024,4.60080,2470.763,2023-6-29T05:59:32Z
2023-06-29T04:00:20Z,42.805,6.029,13.3021,4.60081,2470.787,2023-6-29T06:02:35Z
2023-06-29T04:03:23Z,42.805,6.029,13.3020,4.60080,2470.8,2023-6-29T06:05:39Z
2023-06-29T04:06:26Z,42.805,6.029,13.3019,4.60079,2470.787,2023-6-29T06:08:42Z
2023-06-29T04:09:29Z,42.805,6.029,13.3023,4.60080,2470.81,2023-6-29T06:11:45Z
2023-06-29T04:12:33Z,42.805,6.029,13.3024,4.60080,2470.787,2023-6-29T06:14:48Z
2023-06-29T04:15:36Z,42.805,6.029,13.3022,4.60081,2470.787,2023-6-29T06:17:51Z
2023-06-29T04:18:39Z,42.805,6.029,13.3018,4.60081,2470.8,2023-6-29T06:20:54Z
2023-06-29T04:21:42Z,42.805,6.029,13.3023,4.60079,2470.777,2023-6-29T06:23:57Z
2023-06-29T04:24:45Z,42.805,6.029,13.3021,4.60080,2470.81,2023-6-29T06:27:00Z
2023-06-29T04:27:48Z,42.805,6.029,13.3022,4.60079,2470.787,2023-6-29T06:30:03Z
2023-06-29T04:30:53Z,42.805,6.029,13.3022,4.60080,2470.763,2023-6-29T06:33:08Z
2023-06-29T04:33:56Z,42.805,6.029,13.3021,4.60079,2470.787,2023-6-29T06:36:11Z
2023-06-29T04:36:59Z,42.805,6.029,13.3018,4.60081,2470.8,2023-6-29T06:39:14Z
2023-06-29T04:40:02Z,42.805,6.029,13.3019,4.60080,2470.787,2023-6-29T06:42:17Z
2023-06-29T04:43:05Z,42.805,6.029,13.3019,4.60079,2470.824,2023-6-29T06:45:20Z
2023-06-29T04:46:08Z,42.805,6.029,13.3022,4.60080,2470.81,2023-6-29T06:48:23Z
2023-06-29T04:49:11Z,42.805,6.029,13.3020,4.60081,2470.763,2023-6-29T06:51:27Z
2023-06-29T04:52:14Z,42.805,6.029,13.3018,4.60079,2470.8,2023-6-29T06:54:30Z
2023-06-29T04:55:17Z,42.805,6.029,13.3021,4.60079,2470.787,2023-6-29T06:57:33Z
2023-06-29T04:58:21Z,42.805,6.029,13.3017,4.60079,2470.81,2023-6-29T07:00:36Z
2023-06-29T05:01:24Z,42.805,6.029,13.3020,4.60080,2470.787,2023-6-29T07:03:39Z
2023-06-29T05:04:27Z,42.805,6.029,13.3024,4.60081,2470.763,2023-6-29T07:06:42Z
2023-06-29T05:07:30Z,42.805,6.029,13.3019,4.60080,2470.787,2023-6-29T07:09:45Z
2023-06-29T05:10:33Z,42.805,6.029,13.3023,4.60080,2470.787,2023-6-29T07:12:48Z
2023-06-29T05:13:36Z,42.805,6.029,13.3020,4.60080,2470.763,2023-6-29T07:15:51Z
2023-06-29T05:16:39Z,42.805,6.029,13.3024,4.60081,2470.74,2023-6-29T07:18:54Z
2023-06-29T05:19:42Z,42.805,6.029,13.3023,4.60080,2470.787,2023-6-29T07:21:57Z
2023-06-29T05:22:45Z,42.805,6.029,13.3024,4.60081,2470.763,2023-6-29T07:25:00Z
2023-06-29T05:25:48Z,42.805,6.029,13.3023,4.60080,2470.777,2023-6-29T07:28:04Z
2023-06-29T05:28:51Z,42.805,6.029,13.3021,4.60081,2470.8,2023-6-29T07:31:07Z
2023-06-29T05:31:54Z,42.805,6.029,13.3022,4.60079,2470.763,2023-6-29T07:34:10Z
2023-06-29T05:34:57Z,42.805,6.029,13.3020,4.60081,2470.717,2023-6-29T07:37:13Z
2023-06-29T05:38:01Z,42.805,6.029,13.3023,4.60081,2470.777,2023-6-29T07:40:16Z
2023-06-29T05:41:04Z,42.805,6.029,13.3026,4.60079,2470.763,2023-6-29T07:43:19Z
2023-06-29T05:44:07Z,42.805,6.029,13.3019,4.60079,2470.763,2023-6-29T07:46:22Z
2023-06-29T05:47:10Z,42.805,6.029,13.3023,4.60080,2470.754,2023-6-29T07:49:25Z
2023-06-29T05:50:13Z,42.805,6.029,13.3021,4.60080,2470.74,2023-6-29T07:52:28Z
2023-06-29T05:53:16Z,42.805,6.029,13.3023,4.60079,2470.763,2023-6-29T07:55:31Z
2023-06-29T05:56:19Z,42.805,6.029,13.3020,4.60080,2470.763,2023-6-29T07:58:34Z
2023-06-29T05:59:22Z,42.805,6.029,13.3021,4.60079,2470.763,2023-6-29T08:01:37Z
2023-06-29T06:02:25Z,42.805,6.029,13.3019,4.60080,2470.74,2023-6-29T08:04:41Z
2023-06-29T06:05:28Z,42.805,6.029,13.3021,4.60079,2470.763,2023-6-29T08:07:44Z
2023-06-29T06:08:31Z,42.805,6.029,13.3019,4.60079,2470.74,2023-6-29T08:10:47Z
2023-06-29T06:11:34Z,42.805,6.029,13.3021,4.60080,2470.73,2023-6-29T08:13:50Z
2023-06-29T06:14:38Z,42.805,6.029,13.3020,4.60080,2470.74,2023-6-29T08:16:53Z
2023-06-29T06:17:41Z,42.805,6.029,13.3024,4.60080,2470.777,2023-6-29T08:19:56Z
2023-06-29T06:20:44Z,42.805,6.029,13.3021,4.60079,2470.763,2023-6-29T08:22:59Z
2023-06-29T06:23:47Z,42.805,6.029,13.3021,4.60079,2470.74,2023-6-29T08:26:02Z
2023-06-29T06:26:50Z,42.805,6.029,13.3021,4.60080,2470.763,2023-6-29T08:29:05Z
2023-06-29T06:29:53Z,42.805,6.029,13.3022,4.60082,2470.763,2023-6-29T08:32:08Z
2023-06-29T06:32:56Z,42.805,6.029,13.3023,4.60081,2470.763,2023-6-29T08:35:11Z
2023-06-29T06:35:59Z,42.805,6.029,13.3018,4.60079,2470.73,2023-6-29T08:38:14Z
2023-06-29T06:39:02Z,42.805,6.029,13.3024,4.60081,2470.763,2023-6-29T08:41:17Z
2023-06-29T06:42:05Z,42.805,6.029,13.3021,4.60079,2470.73,2023-6-29T08:44:21Z
2023-06-29T06:45:08Z,42.805,6.029,13.3016,4.60080,2470.74,2023-6-29T08:47:24Z
2023-06-29T06:48:11Z,42.805,6.029,13.3022,4.60081,2470.74,2023-6-29T08:50:27Z
2023-06-29T06:51:15Z,42.805,6.029,13.3021,4.60080,2470.717,2023-6-29T08:53:30Z
2023-06-29T06:54:18Z,42.805,6.029,13.3020,4.60080,2470.754,2023-6-29T08:56:33Z
2023-06-29T06:57:21Z,42.805,6.029,13.3023,4.60080,2470.754,2023-6-29T08:59:36Z
2023-06-29T07:00:24Z,42.805,6.029,13.3021,4.60079,2470.74,2023-6-29T09:02:39Z
2023-06-29T07:03:27Z,42.805,6.029,13.3024,4.60080,2470.717,2023-6-29T09:05:42Z
2023-06-29T07:06:30Z,42.805,6.029,13.3021,4.60080,2470.717,2023-6-29T09:08:45Z
2023-06-29T07:09:33Z,42.805,6.029,13.3024,4.60081,2470.754,2023-6-29T09:11:48Z
2023-06-29T07:12:36Z,42.805,6.029,13.3025,4.60080,2470.74,2023-6-29T09:14:51Z
2023-06-29T07:15:39Z,42.805,6.029,13.3020,4.60081,2470.717,2023-6-29T09:17:54Z
2023-06-29T07:18:42Z,42.805,6.029,13.3021,4.60080,2470.74,2023-6-29T09:20:58Z
2023-06-29T07:21:45Z,42.805,6.029,13.3021,4.60081,2470.717,2023-6-29T09:24:01Z
2023-06-29T07:24:48Z,42.805,6.029,13.3020,4.60080,2470.717,2023-6-29T09:27:04Z
2023-06-29T07:27:52Z,42.805,6.029,13.3024,4.60080,2470.693,2023-6-29T09:30:07Z
2023-06-29T07:30:55Z,42.805,6.029,13.3025,4.60081,2470.693,2023-6-29T09:33:10Z
2023-06-29T07:33:58Z,42.805,6.029,13.3026,4.60081,2470.74,2023-6-29T09:36:13Z
2023-06-29T07:37:01Z,42.805,6.029,13.3021,4.60081,2470.717,2023-6-29T09:39:16Z
2023-06-29T07:40:04Z,42.805,6.029,13.3021,4.60080,2470.717,2023-6-29T09:42:19Z
2023-06-29T07:43:07Z,42.805,6.029,13.3021,4.60081,2470.717,2023-6-29T09:45:22Z
2023-06-29T07:46:10Z,42.805,6.029,13.3020,4.60081,2470.717,2023-6-29T09:48:25Z
2023-06-29T07:49:13Z,42.805,6.029,13.3021,4.60080,2470.693,2023-6-29T09:51:28Z
2023-06-29T07:52:16Z,42.805,6.029,13.3022,4.60079,2470.693,2023-6-29T09:54:31Z
2023-06-29T07:55:19Z,42.805,6.029,13.3023,4.60081,2470.693,2023-6-29T09:57:35Z
2023-06-29T07:58:22Z,42.805,6.029,13.3018,4.60079,2470.693,2023-6-29T10:00:38Z
2023-06-29T08:01:25Z,42.805,6.029,13.3023,4.60080,2470.717,2023-6-29T10:03:41Z
2023-06-29T08:04:28Z,42.805,6.029,13.3024,4.60081,2470.707,2023-6-29T10:06:44Z
2023-06-29T08:07:32Z,42.805,6.029,13.3023,4.60081,2470.717,2023-6-29T10:09:47Z
2023-06-29T08:10:35Z,42.805,6.029,13.3022,4.60080,2470.74,2023-6-29T10:12:50Z
2023-06-29T08:13:38Z,42.805,6.029,13.3024,4.60081,2470.67,2023-6-29T10:15:53Z
2023-06-29T08:16:41Z,42.805,6.029,13.3024,4.60081,2470.717,2023-6-29T10:18:56Z
2023-06-29T08:19:44Z,42.805,6.029,13.3021,4.60080,2470.707,2023-6-29T10:21:59Z
2023-06-29T08:22:47Z,42.805,6.029,13.3024,4.60081,2470.67,2023-6-29T10:25:02Z
2023-06-29T08:25:50Z,42.805,6.029,13.3022,4.60081,2470.646,2023-6-29T10:28:05Z
2023-06-29T08:28:53Z,42.805,6.029,13.3021,4.60079,2470.693,2023-6-29T10:31:08Z
2023-06-29T08:31:55Z,42.805,6.029,13.3022,4.60080,2470.646,2023-6-29T10:34:11Z
2023-06-29T08:34:59Z,42.805,6.029,13.3020,4.60079,2470.67,2023-6-29T10:37:14Z
2023-06-29T08:38:02Z,42.805,6.029,13.3027,4.60081,2470.67,2023-6-29T10:40:17Z
2023-06-29T08:41:05Z,42.805,6.029,13.3022,4.60080,2470.707,2023-6-29T10:43:20Z
2023-06-29T08:44:08Z,42.805,6.029,13.3016,4.60079,2470.67,2023-6-29T10:46:23Z
2023-06-29T08:47:11Z,42.805,6.029,13.3021,4.60079,2470.67,2023-6-29T10:49:26Z
2023-06-29T08:50:14Z,42.805,6.029,13.3020,4.60081,2470.684,2023-6-29T10:52:29Z
2023-06-29T08:53:17Z,42.805,6.029,13.3017,4.60080,2470.67,2023-6-29T10:55:32Z
2023-06-29T08:56:20Z,42.805,6.029,13.3021,4.60079,2470.67,2023-6-29T10:58:35Z
2023-06-29T08:59:23Z,42.805,6.029,13.3021,4.60079,2470.637,2023-6-29T11:01:39Z
2023-06-29T09:02:26Z,42.805,6.029,13.3018,4.60081,2470.67,2023-6-29T11:04:42Z
2023-06-29T09:05:29Z,42.805,6.029,13.3024,4.60082,2470.684,2023-6-29T11:07:45Z
2023-06-29T09:08:32Z,42.805,6.029,13.3021,4.60079,2470.67,2023-6-29T11:10:48Z
2023-06-29T09:11:36Z,42.805,6.029,13.3020,4.60080,2470.67,2023-6-29T11:13:51Z
2023-06-29T09:14:39Z,42.805,6.029,13.3021,4.60079,2470.67,2023-6-29T11:16:54Z
2023-06-29T09:17:42Z,42.805,6.029,13.3023,4.60080,2470.646,2023-6-29T11:19:57Z
2023-06-29T09:20:45Z,42.805,6.029,13.3019,4.60081,2470.693,2023-6-29T11:23:00Z
2023-06-29T09:23:48Z,42.805,6.029,13.3023,4.60080,2470.646,2023-6-29T11:26:03Z
2023-06-29T09:26:51Z,42.805,6.029,13.3019,4.60080,2470.693,2023-6-29T11:29:06Z
2023-06-29T09:29:54Z,42.805,6.029,13.3020,4.60081,2470.646,2023-6-29T11:32:09Z
2023-06-29T09:32:57Z,42.805,6.029,13.3021,4.60081,2470.67,2023-6-29T11:35:12Z
2023-06-29T09:36:00Z,42.805,6.029,13.3024,4.60081,2470.67,2023-6-29T11:38:16Z
2023-06-29T09:39:03Z,42.805,6.029,13.3021,4.60080,2470.67,2023-6-29T11:41:19Z
2023-06-29T09:42:06Z,42.805,6.029,13.3021,4.60081,2470.646,2023-6-29T11:44:22Z
2023-06-29T09:45:09Z,42.805,6.029,13.3019,4.60079,2470.646,2023-6-29T11:47:25Z
2023-06-29T09:48:13Z,42.805,6.029,13.3022,4.60080,2470.661,2023-6-29T11:50:28Z
2023-06-29T09:51:16Z,42.805,6.029,13.3020,4.60080,2470.661,2023-6-29T11:53:31Z
2023-06-29T09:54:19Z,42.805,6.029,13.3022,4.60080,2470.684,2023-6-29T11:56:34Z
2023-06-29T09:57:22Z,42.805,6.029,13.3021,4.60080,2470.624,2023-6-29T11:59:37Z
2023-06-29T10:00:25Z,42.805,6.029,13.3021,4.60079,2470.646,2023-6-29T12:02:40Z
2023-06-29T10:03:28Z,42.805,6.029,13.3025,4.60081,2470.67,2023-6-29T12:05:43Z
2023-06-29T10:06:31Z,42.805,6.029,13.3022,4.60084,2470.661,2023-6-29T12:08:46Z
2023-06-29T10:09:34Z,42.805,6.029,13.3022,4.60081,2470.646,2023-6-29T12:11:49Z
2023-06-29T10:12:37Z,42.805,6.029,13.3021,4.60080,2470.67,2023-6-29T12:14:53Z
2023-06-29T10:15:40Z,42.805,6.029,13.3022,4.60079,2470.684,2023-6-29T12:17:56Z
2023-06-29T10:18:43Z,42.805,6.029,13.3025,4.60083,2470.624,2023-6-29T12:20:59Z
2023-06-29T10:21:46Z,42.805,6.029,13.3025,4.60081,2470.624,2023-6-29T12:24:02Z
2023-06-29T10:24:50Z,42.805,6.029,13.3021,4.60081,2470.67,2023-6-29T12:27:05Z
2023-06-29T10:27:53Z,42.805,6.029,13.3020,4.60080,2470.661,2023-6-29T12:30:08Z
2023-06-29T10:30:54Z,42.805,6.029,13.3019,4.60081,2470.637,2023-6-29T12:33:09Z
2023-06-29T10:33:57Z,42.805,6.029,13.3021,4.60081,2470.684,2023-6-29T12:36:12Z
2023-06-29T10:37:00Z,42.805,6.029,13.3021,4.60081,2470.646,2023-6-29T12:39:16Z
2023-06-29T10:40:03Z,42.805,6.029,13.3021,4.60080,2470.661,2023-6-29T12:42:19Z
2023-06-29T10:43:06Z,42.805,6.029,13.3021,4.60086,2470.646,2023-6-29T12:45:22Z
2023-06-29T10:46:09Z,42.805,6.029,13.3022,4.60084,2470.67,2023-6-29T12:48:25Z
2023-06-29T10:49:13Z,42.805,6.029,13.3024,4.60082,2470.637,2023-6-29T12:51:28Z
2023-06-29T10:52:16Z,42.805,6.029,13.3024,4.60084,2470.67,2023-6-29T12:54:31Z
2023-06-29T10:55:19Z,42.805,6.029,13.3019,4.60081,2470.646,2023-6-29T12:57:34Z
2023-06-29T10:58:22Z,42.805,6.029,13.3023,4.60081,2470.67,2023-6-29T13:00:37Z
2023-06-29T11:01:25Z,42.805,6.029,13.3025,4.60083,2470.646,2023-6-29T13:03:40Z
2023-06-29T11:04:28Z,42.805,6.029,13.3024,4.60084,2470.646,2023-6-29T13:06:43Z
2023-06-29T11:07:31Z,42.805,6.029,13.3022,4.60084,2470.646,2023-6-29T13:09:46Z
2023-06-29T11:10:34Z,42.805,6.029,13.3022,4.60082,2470.684,2023-6-29T13:12:49Z
2023-06-29T11:13:37Z,42.805,6.029,13.3019,4.60082,2470.661,2023-6-29T13:15:53Z
2023-06-29T11:16:40Z,42.805,6.029,13.3023,4.60084,2470.67,2023-6-29T13:18:56Z
2023-06-29T11:19:43Z,42.805,6.029,13.3021,4.60081,2470.67,2023-6-29T13:21:59Z
2023-06-29T11:22:47Z,42.805,6.029,13.3023,4.60081,2470.684,2023-6-29T13:25:02Z
2023-06-29T11:25:50Z,42.805,6.029,13.3025,4.60084,2470.67,2023-6-29T13:28:05Z
2023-06-29T11:28:53Z,42.805,6.029,13.3021,4.60084,2470.67,2023-6-29T13:31:08Z
2023-06-29T11:31:56Z,42.805,6.029,13.3023,4.60081,2470.707,2023-6-29T13:34:11Z
2023-06-29T11:34:59Z,42.805,6.029,13.3024,4.60085,2470.67,2023-6-29T13:37:14Z
2023-06-29T11:38:02Z,42.805,6.029,13.3021,4.60081,2470.67,2023-6-29T13:40:17Z
2023-06-29T11:41:05Z,42.805,6.029,13.3021,4.60084,2470.684,2023-6-29T13:43:20Z
2023-06-29T11:44:08Z,42.805,6.029,13.3025,4.60084,2470.67,2023-6-29T13:46:23Z
2023-06-29T11:47:11Z,42.805,6.029,13.3021,4.60082,2470.661,2023-6-29T13:49:27Z
2023-06-29T11:50:14Z,42.805,6.029,13.3024,4.60086,2470.684,2023-6-29T13:52:30Z
2023-06-29T11:53:17Z,42.805,6.029,13.3024,4.60084,2470.693,2023-6-29T13:55:33Z
2023-06-29T11:56:20Z,42.805,6.029,13.3022,4.60088,2470.67,2023-6-29T13:58:36Z
2023-06-29T11:59:24Z,42.805,6.029,13.3024,4.60086,2470.684,2023-6-29T14:01:39Z
2023-06-29T12:02:27Z,42.805,6.029,13.3024,4.60091,2470.67,2023-6-29T14:04:42Z
2023-06-29T12:05:30Z,42.805,6.029,13.3023,4.60087,2470.67,2023-6-29T14:07:45Z
2023-06-29T12:08:33Z,42.805,6.029,13.3019,4.60084,2470.684,2023-6-29T14:10:48Z
2023-06-29T12:11:36Z,42.805,6.029,13.3023,4.60085,2470.684,2023-6-29T14:13:51Z
2023-06-29T12:14:39Z,42.805,6.029,13.3026,4.60102,2470.693,2023-6-29T14:16:54Z
2023-06-29T12:17:42Z,42.805,6.029,13.3022,4.60091,2470.707,2023-6-29T14:19:57Z
2023-06-29T12:20:45Z,42.805,6.029,13.3023,4.60091,2470.693,2023-6-29T14:23:00Z
2023-06-29T12:23:48Z,42.805,6.029,13.3024,4.60087,2470.693,2023-6-29T14:26:04Z
2023-06-29T12:26:51Z,42.805,6.029,13.3024,4.60085,2470.693,2023-6-29T14:29:07Z
2023-06-29T12:29:54Z,42.805,6.029,13.3028,4.60102,2470.693,2023-6-29T14:32:10Z
2023-06-29T12:32:57Z,42.805,6.029,13.3024,4.60092,2470.754,2023-6-29T14:35:13Z
2023-06-29T12:36:01Z,42.805,6.029,13.3025,4.60086,2470.707,2023-6-29T14:38:16Z
2023-06-29T12:39:04Z,42.805,6.029,13.3024,4.60084,2470.73,2023-6-29T14:41:19Z
2023-06-29T12:42:07Z,42.805,6.029,13.3021,4.60096,2470.67,2023-6-29T14:44:22Z
2023-06-29T12:45:10Z,42.805,6.029,13.3024,4.60087,2470.717,2023-6-29T14:47:25Z
2023-06-29T12:48:13Z,42.805,6.029,13.3023,4.60085,2470.679,2023-6-29T14:50:28Z
2023-06-29T12:51:16Z,42.805,6.029,13.3028,4.60087,2470.717,2023-6-29T14:53:31Z
2023-06-29T12:54:19Z,42.805,6.029,13.3026,4.60085,2470.707,2023-6-29T14:56:34Z
2023-06-29T12:57:22Z,42.805,6.029,13.3024,4.60084,2470.717,2023-6-29T14:59:37Z
2023-06-29T13:00:25Z,42.805,6.029,13.3026,4.60087,2470.693,2023-6-29T15:02:41Z
2023-06-29T13:03:28Z,42.805,6.029,13.3021,4.60084,2470.73,2023-6-29T15:05:44Z
2023-06-29T13:06:31Z,42.805,6.029,13.3025,4.60084,2470.73,2023-6-29T15:08:47Z
2023-06-29T13:09:34Z,42.805,6.029,13.3024,4.60084,2470.717,2023-6-29T15:11:50Z
2023-06-29T13:12:38Z,42.805,6.029,13.3024,4.60084,2470.74,2023-6-29T15:14:53Z
2023-06-29T13:15:41Z,42.805,6.029,13.3026,4.60086,2470.717,2023-6-29T15:17:56Z
2023-06-29T13:18:44Z,42.805,6.029,13.3024,4.60084,2470.717,2023-6-29T15:20:59Z
2023-06-29T13:21:47Z,42.805,6.029,13.3028,4.60084,2470.717,2023-6-29T15:24:02Z
2023-06-29T13:24:50Z,42.805,6.029,13.3024,4.60085,2470.754,2023-6-29T15:27:05Z
2023-06-29T13:27:53Z,42.805,6.029,13.3026,4.60087,2470.74,2023-6-29T15:30:08Z
2023-06-29T13:30:56Z,42.805,6.029,13.3022,4.60084,2470.74,2023-6-29T15:33:11Z
2023-06-29T13:33:59Z,42.805,6.029,13.3027,4.60085,2470.717,2023-6-29T15:36:14Z
2023-06-29T13:37:02Z,42.805,6.029,13.3024,4.60085,2470.74,2023-6-29T15:39:18Z
2023-06-29T13:40:05Z,42.805,6.029,13.3024,4.60084,2470.717,2023-6-29T15:42:21Z
2023-06-29T13:43:08Z,42.805,6.029,13.3025,4.60084,2470.717,2023-6-29T15:45:24Z
2023-06-29T13:46:12Z,42.805,6.029,13.3026,4.60085,2470.763,2023-6-29T15:48:27Z
2023-06-29T13:49:15Z,42.805,6.029,13.3029,4.60086,2470.763,2023-6-29T15:51:30Z
2023-06-29T13:52:18Z,42.805,6.029,13.3024,4.60087,2470.74,2023-6-29T15:54:33Z
2023-06-29T13:55:21Z,42.805,6.029,13.3027,4.60084,2470.74,2023-6-29T15:57:36Z
2023-06-29T13:58:24Z,42.805,6.029,13.3026,4.60086,2470.74,2023-6-29T16:00:39Z
2023-06-29T14:01:27Z,42.805,6.029,13.3026,4.60085,2470.74,2023-6-29T16:03:42Z
2023-06-29T14:04:30Z,42.805,6.029,13.3026,4.60086,2470.74,2023-6-29T16:06:45Z
2023-06-29T14:07:33Z,42.805,6.029,13.3026,4.60085,2470.74,2023-6-29T16:09:48Z
2023-06-29T14:10:36Z,42.805,6.029,13.3022,4.60086,2470.763,2023-6-29T16:12:52Z
2023-06-29T14:13:39Z,42.805,6.029,13.3029,4.60085,2470.763,2023-6-29T16:15:55Z
2023-06-29T14:16:42Z,42.805,6.029,13.3028,4.60085,2470.754,2023-6-29T16:18:58Z
2023-06-29T14:19:45Z,42.805,6.029,13.3025,4.60085,2470.74,2023-6-29T16:22:01Z
2023-06-29T14:22:49Z,42.805,6.029,13.3026,4.60085,2470.763,2023-6-29T16:25:04Z
2023-06-29T14:25:52Z,42.805,6.029,13.3026,4.60085,2470.74,2023-6-29T16:28:07Z
2023-06-29T14:28:55Z,42.805,6.029,13.3027,4.60087,2470.74,2023-6-29T16:31:10Z
2023-06-29T14:31:58Z,42.805,6.029,13.3021,4.60085,2470.763,2023-6-29T16:34:13Z
2023-06-29T14:35:01Z,42.805,6.029,13.3025,4.60086,2470.777,2023-6-29T16:37:16Z
2023-06-29T14:38:04Z,42.805,6.029,13.3024,4.60084,2470.763,2023-6-29T16:40:19Z
2023-06-29T14:41:07Z,42.805,6.029,13.3024,4.60084,2470.787,2023-6-29T16:43:22Z
2023-06-29T14:44:10Z,42.805,6.029,13.3026,4.60084,2470.763,2023-6-29T16:46:25Z
2023-06-29T14:47:13Z,42.805,6.029,13.3028,4.60084,2470.75,2023-6-29T16:49:29Z
2023-06-29T14:50:16Z,42.805,6.029,13.3023,4.60084,2470.787,2023-6-29T16:52:32Z
2023-06-29T14:53:19Z,42.805,6.029,13.3029,4.60085,2470.763,2023-6-29T16:55:35Z
2023-06-29T14:56:23Z,42.805,6.029,13.3025,4.60084,2470.787,2023-6-29T16:58:38Z
2023-06-29T14:59:26Z,42.805,6.029,13.3026,4.60087,2470.763,2023-6-29T17:01:41Z
2023-06-29T15:02:29Z,42.805,6.029,13.3024,4.60085,2470.787,2023-6-29T17:04:44Z
2023-06-29T15:05:32Z,42.805,6.029,13.3031,4.60087,2470.8,2023-6-29T17:07:47Z
2023-06-29T15:08:35Z,42.805,6.029,13.3027,4.60084,2470.763,2023-6-29T17:10:50Z
2023-06-29T15:11:38Z,42.805,6.029,13.3024,4.60085,2470.777,2023-6-29T17:13:53Z
2023-06-29T15:14:41Z,42.805,6.029,13.3024,4.60086,2470.777,2023-6-29T17:16:56Z